Flag for Germany Weather past 2 weeks in Vechta, Lower Saxony, Germany

41 °F


Feels Like: 34 °F
Forecast: 42 / 50 °F
Wind: 12 mph from Southwest

Location: Bremen Airport

Current Time: Nov 28, 2015 at 6:47:37 PM

Latest Report: Nov 28, 2015 at 6:20 PM

Visibility: 10 mi

Pressure: 29.83 "Hg

Humidity: 81%

Dew point: 36 °F

Location of VechtaLocation

Historic Weather in Vechta — Graph


Vechta temperature yesterday

Maximum temperature yesterday: 43 °F (at 12:50 PM)
Minimum temperature yesterday: 32 °F (at 3:20 AM)
Average temperature yesterday: 38 °F

Past Weeks' High & Low Weather Summary

High57 °F (Nov 15, 10:20 AM)100% (Nov 15, 1:50 AM)30.18 "Hg (Nov 15, 1:50 AM)
Low28 °F (Nov 22, 12:20 AM)57% (Nov 23, 1:20 PM)29.33 "Hg (Nov 21, 3:20 AM)
Average44 °F87%29.77 "Hg
* Reported Nov 13 5:20 PM — Nov 28 5:20 PM, Vechta, Weather by CustomWeather, © 2015

Note: Actual official high and low records may vary slightly from our data, if they occured in-between our weather recording intervals... More about our weather records


Vechta weather history for previous 24 hours

Time TempWeatherWind HumidityBarometerVisibility
5:20 PM
Sat, Nov 28
41 °FPassing clouds.13 mph81%29.83 "HgN/A
4:50 PM41 °FPassing clouds.10 mph81%29.83 "HgN/A
4:20 PM41 °FPassing clouds.14 mph81%29.83 "HgN/A
3:50 PM43 °FScattered clouds.14 mph76%29.83 "HgN/A
3:20 PM45 °FPassing clouds.14 mph71%29.80 "HgN/A
2:50 PM45 °FPassing clouds.15 mph76%29.80 "HgN/A
2:20 PM45 °FScattered showers. Scattered clouds.15 mph76%29.80 "HgN/A
1:50 PM45 °FPassing clouds.17 mph76%29.80 "HgN/A
1:20 PM45 °FPassing clouds.18 mph76%29.77 "HgN/A
12:50 PM45 °FPassing clouds.21 mph76%29.77 "HgN/A
12:20 PM45 °FPassing clouds.18 mph76%29.77 "HgN/A
11:50 AM45 °FPassing clouds.18 mph76%29.74 "HgN/A
11:20 AM45 °FPassing clouds.17 mph81%29.74 "HgN/A
10:50 AM43 °FScattered clouds.16 mph87%29.74 "HgN/A
10:20 AM43 °FPartly sunny.13 mph93%29.71 "HgN/A
9:50 AM43 °FLight rain. Broken clouds.12 mph93%29.71 "HgN/A
9:20 AM43 °FLight rain. Partly sunny.12 mph93%29.68 "HgN/A
8:50 AM43 °FLight rain. Broken clouds.13 mph93%29.68 "HgN/A
8:20 AM43 °FLight rain. Broken clouds.16 mph93%29.65 "HgN/A
7:20 AM39 °FLight rain. Passing clouds.14 mph100%29.59 "Hg5 mi
6:50 AM39 °FPassing clouds.15 mph93%29.59 "Hg4 mi
6:20 AM39 °FPassing clouds.13 mph93%29.59 "Hg4 mi
5:50 AM37 °FPartly cloudy.12 mph100%29.59 "Hg4 mi
5:20 AM37 °FPartly cloudy.12 mph93%29.59 "Hg4 mi
4:50 AM37 °FPassing clouds.13 mph93%29.59 "Hg5 mi
4:20 AM39 °FPassing clouds.15 mph81%29.59 "HgN/A
3:50 AM39 °FPassing clouds.14 mph81%29.62 "HgN/A
3:20 AM39 °FPartly cloudy.16 mph81%29.62 "HgN/A
2:50 AM39 °FPassing clouds.14 mph81%29.65 "HgN/A
2:20 AM39 °FPassing clouds.14 mph81%29.65 "HgN/A
1:50 AM39 °FPartly cloudy.15 mph81%29.68 "HgN/A
12:50 AM39 °FPartly cloudy.13 mph81%29.71 "HgN/A
11:50 PM
Fri, Nov 27
39 °FPassing clouds.14 mph81%29.71 "HgN/A
11:20 PM41 °FPassing clouds.13 mph76%29.74 "HgN/A
10:50 PM41 °FPassing clouds.14 mph76%29.74 "HgN/A
10:20 PM41 °FPassing clouds.15 mph76%29.77 "HgN/A
9:50 PM41 °FPartly cloudy.14 mph76%29.77 "HgN/A
9:20 PM41 °FPartly cloudy.14 mph81%29.77 "HgN/A
8:50 PM41 °FPartly cloudy.16 mph76%29.80 "HgN/A
8:20 PM41 °FPassing clouds.16 mph76%29.80 "HgN/A
7:50 PM41 °FPassing clouds.16 mph81%29.83 "HgN/A
7:20 PM41 °FPassing clouds.16 mph81%29.83 "HgN/A
6:50 PM41 °FPassing clouds.15 mph81%29.83 "HgN/A
6:20 PM41 °FPassing clouds.13 mph81%29.86 "HgN/A
Weather by CustomWeather, © 2015

See weather overviewHow to use our weather pages